Weather History for Ozona, TX

Change the Weather History Date:

Saturday, January 11, 2014

  Actual Average Record
Temperature  
Mean Temperature 50 °F -  
Max Temperature 69 °F 54 °F 73 °F (2012)
Min Temperature 30 °F 27 °F 30 °F (2012)
Degree Days  
Heating Degree Days 16    
Moisture  
Dew Point 25 °F    
Average Humidity 50    
Maximum Humidity 80    
Minimum Humidity 16    
Precipitation  
Precipitation 0.00 in - - ()
Sea Level Pressure  
Sea Level Pressure 30.12 in    
Wind  
Wind Speed 2 mph (WNW)    
Max Wind Speed 12 mph    
Max Gust Speed 20 mph    
Visibility 10 miles    
Events      
Averages and records for this station are not official NWS values.
T = Trace of Precipitation, MM = Missing Value Source: NWS Daily Summary

Daily Weather History Graph

Daily Weather History Graph

Search for Another Location

Airport:

Trip Planner

Search our weather history database for the weather conditions in past years. The results will help you decide how hot, cold, wet, or windy it might be!

Date:

Astronomy

Jan. 11, 2014 Rise Set
Actual Time 7:43 AM CST 6:02 PM CST
Civil Twilight 7:17 AM CST 6:28 PM CST
Nautical Twilight 6:47 AM CST 6:58 PM CST
Astronomical Twilight 6:18 AM CST 7:27 PM CST
Moon 2:45 PM CST (1/11) 3:53 AM CST (1/11)
Length of Visible Light 11h 11m
Length of Day
10h 19m
Waxing Gibbous, 83% of the Moon is Illuminated
Jan 11
Waxing Gibbous
Jan 15
Full
Jan 23
Last Quarter
Jan 30
New
Feb 6
First Quarter

Hourly Weather History & Observations

Time (CST) Temp. Windchill Dew Point Humidity Pressure Visibility Wind Dir Wind Speed Gust Speed Precip Events Conditions
12:15 AM 35.6 °F - 26.6 °F 70% 29.97 in 10.0 mi Calm Calm - N/A   Clear
12:35 AM 33.8 °F - 26.6 °F 75% 29.97 in 10.0 mi Calm Calm - N/A   Clear
12:55 AM 33.8 °F - 26.6 °F 75% 29.98 in 10.0 mi Calm Calm - N/A   Clear
1:15 AM 33.8 °F - 26.6 °F 75% 29.97 in 10.0 mi Calm Calm - N/A   Clear
1:35 AM 33.8 °F - 26.6 °F 75% 29.98 in 10.0 mi Calm Calm - N/A   Clear
1:55 AM 32.0 °F - 24.8 °F 75% 29.99 in 10.0 mi Calm Calm - N/A   Clear
2:15 AM 33.8 °F 25.3 °F 24.8 °F 70% 30.02 in 10.0 mi NNE 11.5 mph 19.6 mph N/A   Clear
2:35 AM 37.4 °F 33.8 °F 26.6 °F 65% 30.02 in 10.0 mi ENE 4.6 mph - N/A   Clear
2:55 AM 35.6 °F 31.7 °F 26.6 °F 70% 30.02 in 10.0 mi South 4.6 mph - N/A   Clear
3:15 AM 37.4 °F 34.9 °F 26.6 °F 65% 30.02 in 10.0 mi SSW 3.5 mph - N/A   Clear
3:35 AM 37.4 °F 31.4 °F 26.6 °F 65% 30.04 in 10.0 mi South 8.1 mph - N/A   Clear
3:55 AM 37.4 °F 33.8 °F 26.6 °F 65% 30.05 in 10.0 mi SSW 4.6 mph - N/A   Clear
4:15 AM 35.6 °F 31.7 °F 26.6 °F 70% 30.06 in 10.0 mi WSW 4.6 mph - N/A   Clear
4:35 AM 32.0 °F 28.7 °F 24.8 °F 75% 30.07 in 10.0 mi West 3.5 mph - N/A   Clear
4:55 AM 32.0 °F - 26.6 °F 80% 30.07 in 10.0 mi Calm Calm - N/A   Clear
5:15 AM 32.0 °F - 24.8 °F 75% 30.08 in 10.0 mi Calm Calm - N/A   Clear
5:35 AM 32.0 °F - 24.8 °F 75% 30.09 in 10.0 mi Calm Calm - N/A   Clear
5:55 AM 32.0 °F - 26.6 °F 80% 30.11 in 10.0 mi Calm Calm - N/A   Clear
6:15 AM 30.2 °F - 23.0 °F 75% 30.12 in 10.0 mi Calm Calm - N/A   Clear
6:35 AM 30.2 °F 25.4 °F 23.0 °F 75% 30.12 in 10.0 mi WNW 4.6 mph - N/A   Clear
6:55 AM 30.2 °F - 23.0 °F 75% 30.13 in 10.0 mi Calm Calm - N/A   Clear
7:15 AM 30.2 °F 26.7 °F 23.0 °F 75% 30.15 in 10.0 mi NNE 3.5 mph - N/A   Clear
7:35 AM 30.2 °F 26.7 °F 23.0 °F 75% 30.16 in 10.0 mi NE 3.5 mph - N/A   Clear
7:55 AM 30.2 °F 26.7 °F 23.0 °F 75% 30.17 in 10.0 mi NNE 3.5 mph - N/A   Clear
8:15 AM 32.0 °F 27.5 °F 23.0 °F 69% 30.17 in 10.0 mi NE 4.6 mph - N/A   Clear
8:35 AM 33.8 °F - 26.6 °F 75% 30.19 in 10.0 mi Calm Calm - N/A   Clear
8:55 AM 37.4 °F - 26.6 °F 65% 30.20 in 10.0 mi Calm Calm - N/A   Clear
9:15 AM 42.8 °F - 28.4 °F 57% 30.21 in 10.0 mi Calm Calm - N/A   Clear
9:35 AM 46.4 °F - 26.6 °F 46% 30.22 in 10.0 mi Calm Calm - N/A   Clear
9:55 AM 50.0 °F - 28.4 °F 43% 30.23 in 10.0 mi Calm Calm - N/A   Clear
10:15 AM 53.6 °F - 28.4 °F 38% 30.23 in 10.0 mi Calm Calm - N/A   Clear
10:35 AM 57.2 °F - 26.6 °F 31% 30.24 in 10.0 mi Calm Calm - N/A   Clear
10:55 AM 60.8 °F - 24.8 °F 25% 30.24 in 10.0 mi SSW 3.5 mph - N/A   Clear
11:15 AM 62.6 °F - 26.6 °F 26% 30.23 in 10.0 mi Calm Calm - N/A   Clear
11:35 AM 62.6 °F - 24.8 °F 24% 30.22 in 10.0 mi Calm Calm - N/A   Clear
11:55 AM 64.4 °F - 23.0 °F 21% 30.20 in 10.0 mi Calm Calm - N/A   Clear
12:15 PM 64.4 °F - 23.0 °F 21% 30.20 in 10.0 mi WNW 5.8 mph - N/A   Clear
12:35 PM 64.4 °F - 21.2 °F 19% 30.19 in 10.0 mi West 8.1 mph - N/A   Clear
12:55 PM 66.2 °F - 21.2 °F 18% 30.18 in 10.0 mi NW 5.8 mph - N/A   Clear
1:15 PM 68.0 °F - 21.2 °F 17% 30.17 in 10.0 mi NW 6.9 mph - N/A   Clear
1:35 PM 68.0 °F - 21.2 °F 17% 30.16 in 10.0 mi NNW 8.1 mph - N/A   Clear
1:55 PM 68.0 °F - 21.2 °F 17% 30.15 in 10.0 mi NW 6.9 mph - N/A   Clear
2:15 PM 68.0 °F - 21.2 °F 17% 30.14 in 10.0 mi NW 8.1 mph - N/A   Clear
2:35 PM 69.8 °F - 21.2 °F 16% 30.13 in 10.0 mi NW 5.8 mph - N/A   Clear
2:55 PM 69.8 °F - 21.2 °F 16% 30.12 in 10.0 mi NNW 4.6 mph - N/A   Clear
3:15 PM 69.8 °F - 21.2 °F 16% 30.12 in 10.0 mi NW 8.1 mph - N/A   Clear
3:35 PM 69.8 °F - 21.2 °F 16% 30.11 in 10.0 mi North 3.5 mph - N/A   Clear
3:55 PM 69.8 °F - 21.2 °F 16% 30.12 in 10.0 mi Calm Calm - N/A   Clear
4:15 PM 69.8 °F - 21.2 °F 16% 30.11 in 10.0 mi West 5.8 mph - N/A   Clear
4:35 PM 69.8 °F - 21.2 °F 16% 30.11 in 10.0 mi NW 3.5 mph - N/A   Clear
4:55 PM 69.8 °F - 21.2 °F 16% 30.11 in 10.0 mi Calm Calm - N/A   Clear
5:15 PM 68.0 °F - 21.2 °F 17% 30.10 in 10.0 mi Calm Calm - N/A   Clear
5:35 PM 66.2 °F - 21.2 °F 18% 30.10 in 10.0 mi Calm Calm - N/A   Clear
5:55 PM 64.4 °F - 21.2 °F 19% 30.09 in 10.0 mi ESE 3.5 mph - N/A   Clear
6:15 PM 60.8 °F - 23.0 °F 23% 30.09 in 10.0 mi SE 4.6 mph - N/A   Clear
6:35 PM 55.4 °F - 24.8 °F 31% 30.09 in 10.0 mi Calm Calm - N/A   Clear
6:55 PM 51.8 °F - 26.6 °F 38% 30.10 in 10.0 mi Calm Calm - N/A   Clear
7:15 PM 48.2 °F - 24.8 °F 40% 30.10 in 10.0 mi Calm Calm - N/A   Clear
7:35 PM 46.4 °F - 23.0 °F 40% 30.11 in 10.0 mi Calm Calm - N/A   Clear
7:55 PM 42.8 °F - 26.6 °F 53% 30.12 in 10.0 mi Calm Calm - N/A   Clear
8:15 PM 42.8 °F - 26.6 °F 53% 30.12 in 10.0 mi Calm Calm - N/A   Clear
8:35 PM 41.0 °F - 26.6 °F 57% 30.12 in 10.0 mi Calm Calm - N/A   Clear
8:55 PM 41.0 °F - 28.4 °F 61% 30.12 in 10.0 mi Calm Calm - N/A   Clear
9:15 PM 39.2 °F 35.9 °F 26.6 °F 61% 30.12 in 10.0 mi SSW 4.6 mph - N/A   Clear
9:35 PM 37.4 °F - 26.6 °F 65% 30.12 in 10.0 mi Calm Calm - N/A   Clear
9:55 PM 37.4 °F - 26.6 °F 65% 30.13 in 10.0 mi Calm Calm - N/A   Clear
10:15 PM 35.6 °F - 26.6 °F 70% 30.12 in 10.0 mi Calm Calm - N/A   Clear
10:35 PM 35.6 °F - 26.6 °F 70% 30.12 in 10.0 mi Calm Calm - N/A   Clear
10:55 PM 33.8 °F - 26.6 °F 75% 30.12 in 10.0 mi Calm Calm - N/A   Clear
11:15 PM 33.8 °F - 26.6 °F 75% 30.12 in 10.0 mi Calm Calm - N/A   Clear
11:35 PM 33.8 °F 30.8 °F 26.6 °F 75% 30.11 in 10.0 mi SW 3.5 mph - N/A   Clear
11:55 PM 33.8 °F 30.8 °F 26.6 °F 75% 30.11 in 10.0 mi SSW 3.5 mph - N/A   Clear